Wetbulb
59.30 59.37 59.57 59.59 59.57 59.64 59.59 59.33 59.09 59.15 59.34 59.61 59.93 60.10 60.13 60.17 59.64 56.92 50.63 56.46 57.74 63.41 59.74 56.36 56.10 55.06 55.42 53.82 52.94 51.81 47.47 44.68 44.87 44.46 46.22 49.34 48.23 48.89 50.45 50.07 49.85 51.38 52.38 54.70 52.49
58.95 59.04 59.18 59.33 59.40 59.47 59.47 59.35 59.13 59.06 59.03 59.08 59.27 59.53 59.81 59.61 56.06 52.83 60.17 61.53 64.50 62.06 55.45 54.30 52.85 53.80 52.68 52.00 52.97 50.87 46.97 46.03 48.28 48.35 47.35 48.98 48.62 49.70 48.90 50.16 50.86 50.90 53.34 53.21 51.89
58.82 58.89 59.06 59.17 59.29 59.49 59.50 59.32 59.17 59.12 59.02 58.88 58.94 59.13 59.23 58.97 51.47 50.02 62.48 63.85 65.10 60.41 56.19 54.64 54.59 53.09 50.32 51.58 51.41 50.02 46.93 49.54 48.35 48.66 48.14 48.13 48.60 49.61 49.21 48.32 51.09 50.97 52.59 54.10 52.23
59.08 59.02 59.08 59.16 59.24 59.51 59.52 59.49 59.63 59.38 59.02 58.81 58.74 58.81 58.93 56.48 44.16 50.89 62.89 65.38 63.67 57.09 54.97 53.58 52.87 50.64 49.50 48.58 50.61 46.77 49.66 49.77 50.07 49.09 48.43 47.90 49.76 48.38 49.46 50.43 52.71 53.37 53.80 53.25 52.56
59.32 59.14 59.15 59.11 59.12 59.43 59.52 59.47 59.85 59.80 59.18 58.92 58.56 58.51 55.63 48.48 49.62 60.09 63.89 64.55 57.15 54.96 53.71 52.58 50.98 50.42 47.70 48.39 47.82 46.91 48.80 49.63 50.11 48.89 48.93 49.79 48.40 48.80 49.33 52.03 53.06 52.97 52.04 51.23 51.99
59.39 59.02 58.85 58.92 59.11 59.24 59.30 59.36 59.51 59.50 59.04 58.91 58.49 57.85 51.18 43.73 53.33 61.97 61.67 55.59 55.45 54.58 52.96 52.78 51.36 51.77 48.68 47.67 47.20 47.92 47.46 47.84 48.16 48.03 48.45 46.49 47.92 47.27 49.11 51.59 50.76 51.05 51.10 51.94 51.66
59.31 58.86 58.48 58.49 58.95 59.24 59.26 59.28 58.94 58.67 58.59 58.77 58.62 55.90 48.69 48.15 54.88 59.52 56.25 54.99 54.50 53.99 51.31 51.71 52.00 50.54 49.57 46.68 47.64 46.55 44.37 46.69 47.22 46.73 45.94 47.01 44.53 44.86 49.96 49.98 48.86 49.82 50.92 51.15 51.30
58.86 58.33 58.04 58.20 58.49 58.78 58.97 58.98 58.18 58.16 58.00 58.35 58.17 54.70 47.84 51.02 55.89 54.74 53.04 51.27 53.11 52.34 51.77 51.64 52.04 50.31 48.37 48.27 45.99 43.81 43.24 40.94 46.43 44.34 45.24 46.21 41.59 47.27 49.54 47.34 47.60 48.89 49.84 50.49 51.36
58.37 57.94 58.00 58.19 58.13 58.16 58.54 57.40 57.65 57.98 58.58 57.86 53.94 49.87 46.96 52.92 49.54 50.73 51.97 50.09 50.60 50.54 51.19 50.37 51.07 48.06 46.80 44.04 42.18 42.78 39.32 40.79 42.16 45.38 43.92 44.33 42.32 46.73 48.70 47.17 46.95 48.18 49.05 49.72 50.41
58.35 58.08 58.18 58.21 58.03 58.09 57.10 54.84 57.60 56.76 56.49 55.92 52.64 46.57 48.42 46.32 49.49 49.13 50.07 50.44 48.59 49.47 48.58 48.36 47.61 45.15 43.64 42.59 37.55 40.61 40.15 40.47 39.66 44.48 44.16 41.97 41.68 44.74 46.53 46.29 46.06 47.26 48.29 49.22 49.76
58.80 58.60 58.68 58.33 58.23 58.35 53.84 52.74 53.16 49.86 49.75 47.91 48.57 46.94 46.26 49.05 50.30 48.08 49.33 48.34 48.53 47.24 43.92 44.92 42.61 40.94 44.11 44.32 44.20 41.57 40.17 39.39 42.32 44.72 42.30 41.67 42.19 44.02 46.21 46.37 46.21 46.90 48.06 48.90 49.55
59.55 59.34 59.22 58.57 58.14 55.72 52.78 49.74 47.59 47.37 46.56 48.83 47.00 46.72 47.18 49.05 45.97 46.60 49.26 46.48 45.33 42.59 42.32 41.39 39.83 44.86 43.80 42.53 41.03 40.96 39.01 39.23 42.71 43.83 39.93 41.56 40.95 43.77 45.32 45.77 47.07 47.25 47.69 48.43 48.77
59.22 58.81 58.72 58.44 57.40 55.43 50.22 48.37 50.94 49.86 44.20 46.80 45.66 44.79 45.74 47.93 44.97 45.12 47.21 45.93 43.90 40.45 40.71 41.41 43.86 43.95 41.13 41.56 39.31 40.20 38.51 39.77 39.57 41.54 42.25 39.92 40.98 41.98 45.84 45.25 46.66 46.42 47.40 47.29 46.73
58.85 58.73 58.32 57.78 55.57 53.30 51.16 49.67 50.83 48.94 43.64 44.58 43.26 44.24 45.67 45.74 42.17 44.42 46.19 45.30 43.16 41.37 40.78 40.90 42.13 40.30 39.47 39.43 41.26 37.34 42.77 40.28 38.45 37.13 36.38 39.84 34.25 42.31 44.69 44.42 44.65 46.15 46.92 46.86 46.73
57.71 58.27 58.43 56.95 57.37 54.78 51.44 50.40 50.29 46.82 34.33 44.26 41.68 47.88 45.62 42.63 42.49 42.02 44.70 45.08 41.40 40.99 41.03 40.65 38.69 37.68 37.71 40.18 40.89 39.98 39.79 38.00 37.03 36.89 35.37 38.20 34.32 41.66 41.27 41.43 43.55 45.59 45.14 45.42 44.43
55.22 57.59 55.83 56.01 55.22 53.40 50.97 50.10 48.35 42.49 33.52 42.68 41.72 41.02 41.43 41.76 40.94 42.07 42.79 44.53 42.59 40.59 40.06 41.44 40.54 40.61 41.70 40.24 40.16 39.38 38.91 37.51 36.87 36.79 32.13 38.53 36.11 38.69 40.72 41.07 42.88 42.94 42.10 41.34 41.46
52.38 56.26 55.99 55.60 53.98 51.39 50.03 51.59 42.18 35.23 44.60 41.65 40.05 39.88 39.18 38.54 39.35 39.94 40.23 39.76 39.98 37.68 38.90 40.71 38.61 40.25 40.19 38.70 38.67 38.42 37.05 33.84 32.66 32.38 31.36 36.69 33.66 38.67 43.34 42.67 40.32 40.32 39.38 39.57 40.28
51.45 55.76 55.01 54.89 53.06 51.74 53.40 47.40 34.58 40.26 41.95 43.39 42.32 41.39 41.46 41.91 40.99 38.91 39.06 40.23 39.95 38.37 38.84 36.97 35.59 38.83 40.26 41.18 41.92 37.85 38.27 33.78 26.51 28.56 32.23 31.88 31.97 38.71 43.08 40.43 39.73 39.40 38.95 38.86 38.66
51.76 55.35 54.47 55.76 52.67 53.74 50.43 37.09 37.56 40.35 43.49 42.29 43.04 40.27 40.61 40.77 40.77 40.07 38.46 40.02 40.73 40.60 38.41 37.60 37.09 38.71 37.56 39.26 41.10 37.01 34.22 39.47 33.05 34.02 29.88 34.79 38.97 43.37 43.11 37.63 38.17 37.21 36.89 35.49 36.04
49.64 51.18 50.84 55.36 53.38 52.95 44.89 37.37 40.16 43.59 44.29 43.58 38.19 41.04 37.35 39.72 38.63 38.39 39.56 40.20 39.35 40.00 39.98 39.06 33.84 40.68 40.56 38.24 39.21 37.90 40.35 32.65 32.35 24.66 23.91 30.74 33.63 35.62 36.85 35.90 35.42 34.22 33.53 34.24 34.68
48.60 43.69 49.10 53.42 53.86 46.32 36.76 38.00 40.57 45.13 45.79 42.08 40.66 39.48 39.69 38.61 38.97 38.18 38.26 41.69 41.83 43.08 39.65 39.66 37.24 37.05 38.02 37.08 36.39 36.21 32.89 33.67 33.54 31.73 26.39 25.09 30.92 39.43 37.80 34.33 32.99 32.04 32.06 32.23 33.21
47.14 37.46 50.65 53.47 42.92 43.30 38.19 40.04 42.10 42.00 44.37 43.07 43.52 41.78 39.65 39.86 37.48 37.07 36.73 40.19 44.48 43.39 38.37 41.66 36.54 32.00 34.87 40.88 39.12 37.61 36.31 36.21 29.73 28.05 31.01 29.70 30.22 36.07 33.26 32.39 30.86 29.44 30.04 31.65 32.47
42.56 41.23 49.86 50.58 36.45 37.79 40.68 40.09 41.78 40.50 40.73 40.48 39.39 41.28 41.34 38.00 34.21 37.06 38.14 42.49 43.33 41.95 39.54 40.22 34.60 29.44 31.23 35.64 36.70 35.53 37.22 37.12 35.42 32.83 30.30 27.60 29.30 35.45 32.41 30.56 31.79 29.90 30.15 30.35 30.58
40.10 33.91 40.91 45.14 43.89 39.09 37.42 37.01 37.03 41.31 40.44 41.52 40.21 41.33 38.76 36.46 38.37 34.99 35.78 39.73 40.93 40.64 41.22 39.89 34.72 32.04 26.85 31.32 34.53 32.95 34.28 33.45 32.56 28.03 28.66 29.84 32.13 35.78 36.79 32.62 30.81 29.98 30.97 31.16 29.87
36.84 33.36 36.96 34.82 36.09 38.01 37.61 35.89 33.81 33.34 37.83 38.67 35.93 36.66 33.29 30.69 31.65 31.66 35.08 36.09 38.28 38.20 37.65 37.34 31.01 32.32 32.71 33.99 33.71 32.44 31.30 31.71 29.56 30.20 25.10 28.55 28.54 32.41 34.92 32.09 28.10 28.64 29.43 29.73 28.51
33.39 33.39 35.11 34.23 34.99 34.50 35.27 33.69 33.68 34.28 34.13 32.70 32.41 34.22 33.73 30.35 31.35 29.77 32.43 32.32 31.68 34.95 34.08 35.50 27.83 29.99 26.38 31.06 31.10 28.11 30.27 29.98 29.30 29.27 28.58 28.51 28.12 34.75 28.16 28.22 27.47 27.48 28.24 28.67 28.20
35.93 36.64 34.67 30.87 30.18 30.94 31.37 32.29 30.47 33.17 31.46 31.74 30.76 29.99 29.12 31.60 33.02 32.84 33.88 33.00 32.94 30.25 29.58 29.99 28.19 25.70 21.41 27.78 26.81 21.56 25.57 27.17 28.40 30.67 29.80 24.61 27.52 25.72 24.26 26.13 27.47 27.57 27.97 28.75 28.18
MSLP
1021.31 1021.15 1020.96 1020.85 1020.68 1020.55 1020.35 1020.22 1020.04 1019.89 1019.66 1019.47 1019.24 1018.94 1018.61 1018.40 1018.03 1017.77 1016.75 1015.69 1015.77 1016.32 1016.43 1016.80 1016.83 1016.79 1016.72 1016.65 1016.73 1016.52 1015.44 1014.54 1014.19 1014.12 1013.21 1013.66 1013.63 1013.87 1013.56 1013.07 1012.92 1012.61 1011.89 1011.65 1013.11
1021.34 1021.25 1021.04 1020.88 1020.66 1020.56 1020.36 1020.20 1020.02 1019.82 1019.63 1019.48 1019.23 1018.96 1018.72 1018.49 1017.83 1016.67 1015.38 1015.48 1015.67 1016.03 1016.14 1016.17 1016.41 1016.66 1016.42 1016.60 1016.66 1016.06 1015.27 1014.28 1014.08 1013.84 1013.48 1013.52 1013.66 1013.54 1013.44 1012.50 1011.75 1011.72 1011.54 1011.99 1012.94
1021.25 1021.11 1021.04 1020.89 1020.67 1020.46 1020.28 1020.12 1019.81 1019.62 1019.45 1019.32 1019.14 1018.87 1018.67 1018.37 1017.39 1015.36 1015.17 1015.50 1015.76 1015.95 1015.93 1016.21 1016.29 1016.38 1016.32 1016.50 1016.26 1015.98 1014.75 1014.24 1014.04 1013.95 1014.13 1013.80 1013.62 1013.61 1012.73 1011.48 1011.28 1010.94 1010.65 1011.05 1012.01
1021.13 1021.02 1020.87 1020.70 1020.55 1020.31 1020.07 1019.93 1019.70 1019.36 1019.16 1019.08 1018.95 1018.76 1018.46 1018.04 1016.82 1015.32 1015.18 1015.39 1015.82 1015.96 1016.11 1016.26 1016.29 1016.22 1016.15 1016.01 1015.95 1015.86 1014.88 1014.57 1014.07 1014.24 1014.39 1013.98 1013.49 1012.91 1012.45 1010.69 1010.44 1010.41 1010.60 1010.85 1011.05
1020.98 1020.87 1020.74 1020.56 1020.38 1020.17 1019.93 1019.66 1019.45 1019.20 1018.94 1018.78 1018.73 1018.63 1018.16 1017.60 1016.06 1015.63 1015.71 1015.84 1015.99 1016.06 1015.91 1016.05 1016.12 1016.12 1015.95 1016.00 1016.20 1015.82 1014.78 1014.48 1014.32 1014.48 1014.35 1014.06 1012.72 1012.48 1011.26 1010.82 1010.34 1010.23 1010.48 1010.44 1010.33
1020.79 1020.70 1020.58 1020.43 1020.22 1019.93 1019.64 1019.30 1019.02 1018.80 1018.61 1018.48 1018.48 1018.56 1018.08 1017.18 1015.53 1015.68 1015.94 1016.30 1016.10 1016.08 1016.02 1016.05 1015.74 1015.99 1015.85 1015.86 1015.98 1015.42 1015.12 1014.54 1014.30 1014.00 1013.93 1013.85 1012.08 1012.40 1010.27 1010.30 1009.92 1009.56 1009.42 1009.30 1009.44
1020.68 1020.64 1020.55 1020.38 1020.08 1019.77 1019.46 1019.11 1018.76 1018.42 1018.12 1018.02 1018.19 1018.14 1017.65 1016.00 1015.50 1015.78 1016.00 1016.17 1016.18 1016.03 1016.15 1016.37 1016.20 1016.07 1016.06 1015.86 1016.11 1015.82 1015.15 1013.99 1013.18 1013.34 1013.66 1013.60 1012.31 1011.15 1009.73 1010.12 1009.62 1008.79 1008.35 1008.31 1008.30
1020.61 1020.56 1020.46 1020.25 1019.94 1019.49 1019.14 1018.80 1018.43 1018.14 1017.95 1017.84 1018.05 1017.91 1016.54 1015.81 1015.76 1015.99 1016.04 1016.35 1016.50 1016.47 1016.39 1016.44 1016.39 1016.23 1016.22 1016.26 1016.00 1015.57 1015.26 1013.56 1012.12 1013.19 1013.39 1013.40 1011.44 1009.87 1010.04 1010.10 1009.28 1008.77 1008.00 1007.50 1006.98
1020.48 1020.46 1020.41 1020.17 1019.79 1019.23 1018.85 1018.49 1018.37 1018.09 1017.82 1018.13 1018.18 1017.52 1016.19 1016.19 1016.12 1016.22 1016.09 1016.04 1016.45 1016.68 1016.70 1016.70 1016.47 1016.29 1016.30 1015.80 1015.50 1014.92 1013.83 1013.13 1012.57 1012.51 1013.14 1013.29 1011.38 1010.26 1010.06 1010.04 1008.75 1008.09 1007.53 1006.88 1006.89
1020.33 1020.26 1020.12 1019.98 1019.69 1019.20 1018.70 1018.42 1018.36 1018.28 1018.26 1018.05 1017.68 1017.73 1015.89 1015.92 1016.17 1016.30 1016.32 1016.24 1016.33 1016.55 1016.70 1016.71 1016.61 1016.09 1016.01 1015.46 1014.13 1013.49 1013.36 1013.05 1012.83 1011.83 1012.42 1012.41 1011.42 1011.04 1009.79 1009.58 1008.28 1007.61 1006.85 1007.18 1006.64
1020.04 1019.99 1019.96 1019.72 1019.49 1019.17 1018.53 1018.47 1018.56 1018.38 1017.79 1017.20 1016.78 1016.25 1015.87 1016.11 1016.25 1016.45 1016.50 1016.46 1016.30 1016.40 1016.18 1016.62 1016.21 1015.17 1014.33 1014.26 1013.75 1013.92 1013.69 1013.16 1012.35 1012.25 1012.39 1011.22 1010.65 1010.08 1009.13 1008.28 1007.64 1006.98 1007.19 1006.95 1006.79
1019.74 1019.73 1019.76 1019.64 1019.42 1019.07 1018.75 1019.05 1019.85 1020.16 1018.32 1016.60 1016.40 1016.17 1015.89 1015.97 1016.19 1016.46 1016.65 1016.57 1016.45 1016.23 1016.67 1016.86 1015.47 1014.41 1014.57 1014.75 1014.64 1014.28 1013.92 1013.01 1012.49 1012.24 1012.62 1011.05 1010.30 1009.23 1008.52 1007.48 1006.75 1007.02 1007.02 1007.11 1007.22
1019.50 1019.55 1019.52 1019.58 1019.40 1019.26 1019.56 1019.96 1020.24 1020.11 1019.10 1016.66 1016.35 1016.19 1016.16 1016.09 1016.15 1016.48 1016.63 1016.46 1016.31 1016.40 1016.21 1015.44 1014.61 1014.88 1015.18 1015.09 1014.80 1014.36 1013.87 1012.92 1012.74 1012.59 1012.04 1011.25 1009.45 1008.88 1007.86 1007.46 1006.91 1007.22 1007.47 1007.73 1008.30
1019.23 1019.35 1019.38 1019.36 1019.75 1019.79 1019.80 1020.31 1020.52 1020.49 1018.92 1016.54 1016.15 1016.10 1016.16 1016.15 1016.43 1016.67 1016.63 1016.55 1016.42 1016.09 1016.26 1015.86 1015.45 1015.24 1015.47 1015.11 1014.89 1014.38 1013.81 1013.73 1013.45 1013.14 1011.85 1011.96 1007.82 1008.12 1007.22 1006.81 1007.28 1007.58 1007.78 1008.78 1009.77
1018.87 1019.10 1019.19 1019.06 1019.23 1019.65 1019.84 1020.20 1020.60 1020.40 1018.25 1016.44 1015.93 1016.00 1016.00 1016.33 1016.60 1016.77 1016.87 1016.26 1016.12 1015.97 1016.26 1014.97 1015.33 1015.52 1015.40 1014.89 1015.01 1014.29 1014.20 1014.28 1014.13 1013.38 1012.34 1011.32 1010.65 1007.46 1007.30 1006.83 1007.54 1008.39 1009.66 1010.95 1011.77
1019.07 1019.11 1019.38 1019.26 1019.27 1019.64 1020.06 1020.31 1020.36 1019.59 1016.90 1015.78 1015.72 1015.79 1015.72 1016.15 1016.62 1017.01 1016.80 1016.62 1016.66 1016.11 1016.00 1015.09 1015.69 1015.35 1014.55 1014.79 1015.04 1014.93 1014.81 1014.52 1014.35 1013.77 1011.47 1010.45 1010.02 1007.55 1007.49 1007.55 1008.50 1010.26 1011.91 1012.75 1013.16
1019.02 1019.16 1019.54 1019.07 1019.44 1019.85 1020.00 1020.12 1019.62 1018.24 1016.43 1015.46 1015.52 1015.75 1015.84 1016.05 1016.58 1016.56 1016.29 1016.24 1016.05 1015.62 1015.10 1014.64 1014.78 1014.86 1014.93 1014.96 1015.04 1014.98 1015.02 1013.99 1013.24 1012.84 1010.96 1010.50 1010.21 1007.95 1008.55 1009.36 1010.49 1011.64 1012.90 1013.54 1013.80
1019.16 1019.34 1019.42 1019.50 1019.60 1019.64 1019.73 1019.83 1018.44 1016.36 1016.15 1015.63 1015.58 1015.64 1015.53 1015.67 1016.19 1016.55 1016.19 1015.48 1015.70 1015.76 1014.88 1014.27 1013.30 1014.39 1014.51 1014.16 1013.90 1014.34 1014.30 1013.84 1013.15 1012.01 1010.70 1011.13 1008.69 1007.43 1009.31 1010.78 1011.80 1012.76 1013.77 1014.42 1014.26
1019.16 1019.39 1019.42 1019.02 1019.53 1019.91 1019.81 1019.39 1016.99 1016.26 1016.02 1016.04 1015.72 1015.58 1015.58 1015.83 1016.28 1016.39 1016.25 1015.58 1015.46 1015.41 1015.46 1014.71 1013.27 1014.13 1014.58 1014.38 1014.13 1014.58 1014.14 1013.70 1013.64 1013.14 1012.14 1009.94 1008.38 1007.85 1009.52 1011.84 1013.20 1014.16 1015.05 1015.66 1015.84
1019.63 1019.76 1019.48 1018.97 1019.08 1019.53 1020.19 1018.56 1017.71 1016.54 1016.18 1016.24 1016.10 1016.08 1015.98 1016.12 1016.37 1016.71 1016.53 1015.77 1015.44 1015.67 1015.91 1015.57 1015.01 1014.60 1014.71 1015.09 1014.73 1014.64 1014.23 1014.29 1014.17 1013.15 1011.63 1009.98 1008.83 1008.24 1010.47 1012.42 1014.11 1014.93 1015.76 1016.40 1016.71
1019.53 1019.72 1019.33 1019.22 1019.30 1019.72 1018.77 1017.87 1017.11 1016.60 1016.47 1016.60 1016.31 1016.24 1016.30 1016.72 1016.88 1017.04 1016.32 1016.03 1015.82 1015.94 1016.51 1016.66 1016.54 1014.53 1015.41 1014.56 1014.31 1014.83 1014.65 1014.34 1014.14 1013.46 1012.21 1010.97 1009.95 1010.54 1011.59 1014.01 1015.10 1016.04 1017.04 1017.20 1017.17
1019.14 1019.94 1019.26 1019.06 1019.40 1018.80 1018.10 1017.50 1017.51 1017.04 1017.13 1017.11 1016.72 1016.64 1016.86 1017.19 1016.92 1016.88 1016.44 1016.53 1016.38 1016.50 1016.78 1016.84 1016.92 1016.33 1014.58 1014.35 1014.50 1014.61 1014.58 1014.15 1013.89 1013.45 1012.51 1011.93 1011.15 1012.80 1013.62 1015.18 1016.50 1017.09 1017.83 1017.88 1017.48
1019.26 1019.51 1019.29 1019.28 1018.52 1017.90 1017.84 1017.67 1017.49 1017.21 1017.53 1017.45 1017.32 1017.17 1017.28 1017.71 1017.95 1017.07 1016.72 1017.06 1017.24 1017.36 1017.05 1017.31 1017.43 1017.00 1015.93 1015.15 1015.30 1015.17 1015.11 1014.85 1014.79 1014.48 1012.92 1012.79 1012.48 1014.16 1014.78 1016.56 1017.57 1017.97 1018.40 1018.30 1017.70
1019.62 1019.84 1019.57 1019.18 1018.57 1018.17 1017.95 1017.75 1017.63 1017.64 1017.66 1017.63 1017.48 1017.66 1017.98 1018.31 1018.35 1017.83 1017.76 1017.81 1017.98 1018.19 1018.34 1018.62 1017.88 1017.32 1016.84 1015.73 1016.08 1015.81 1016.12 1016.33 1016.14 1015.04 1013.83 1013.36 1013.39 1014.52 1014.79 1016.00 1017.00 1017.48 1017.78 1018.11 1017.88
1019.88 1019.46 1019.21 1018.92 1018.72 1018.48 1018.52 1018.06 1017.89 1018.34 1018.42 1018.09 1018.07 1018.25 1018.95 1019.08 1019.12 1019.03 1018.93 1019.12 1018.76 1018.90 1019.00 1019.02 1018.30 1017.69 1017.13 1016.71 1016.54 1016.12 1016.17 1015.74 1015.13 1015.07 1014.86 1013.81 1014.13 1013.88 1014.62 1015.76 1016.87 1017.22 1017.03 1017.44 1017.39
1020.17 1019.79 1019.78 1019.64 1019.24 1019.08 1019.22 1018.08 1018.27 1018.84 1019.27 1019.22 1019.20 1019.35 1019.95 1019.90 1020.09 1019.99 1020.30 1020.24 1019.81 1019.46 1019.65 1019.30 1018.60 1018.42 1017.25 1017.05 1016.64 1016.29 1015.90 1015.38 1015.33 1015.23 1014.78 1014.64 1013.98 1014.26 1016.01 1016.48 1016.72 1016.86 1017.12 1016.98 1016.75
1020.57 1020.14 1019.73 1020.25 1019.92 1019.52 1018.94 1018.90 1019.19 1019.43 1020.35 1020.44 1020.51 1020.63 1020.76 1020.85 1021.29 1021.48 1021.44 1021.40 1021.13 1020.91 1020.25 1020.13 1019.48 1018.99 1017.28 1017.51 1016.86 1015.94 1015.07 1015.33 1014.84 1014.49 1014.47 1014.64 1015.04 1016.09 1016.64 1016.83 1016.93 1017.04 1017.02 1016.75 1016.77
Wind_Speed
10 10 11 11 11 11 11 11 11 11 11 12 13 13 12 12 7 3 6 3 5 13 8 9 3 3 2 3 1 2 4 5 4 5 2 3 4 4 3 9 5 8 9 9 4
8 8 9 9 10 10 10 10 10 10 11 11 11 12 12 11 3 7 2 4 10 14 10 12 8 6 3 3 2 5 4 5 4 5 6 6 5 6 6 13 16 13 15 13 5
5 6 7 8 9 9 9 9 9 9 10 10 11 12 12 7 6 2 2 9 14 8 6 4 7 4 4 3 6 4 8 6 7 12 7 8 9 5 9 15 15 16 15 10 10
5 6 7 8 9 9 9 9 9 9 9 8 8 11 12 3 6 2 6 12 12 7 9 8 7 5 5 7 5 6 12 10 5 4 4 7 6 9 14 25 22 21 17 14 15
5 5 6 7 8 10 10 11 11 11 10 8 6 7 2 2 8 3 6 9 11 8 9 8 7 5 7 4 3 9 10 10 11 9 10 12 21 17 20 23 24 20 16 17 17
5 6 7 7 9 10 12 13 14 13 13 9 4 4 3 7 3 6 8 7 6 9 7 8 6 5 4 6 8 2 7 11 9 14 12 10 23 5 12 11 15 15 16 16 14
5 6 7 8 9 11 12 13 15 15 13 9 5 3 3 13 3 6 5 2 5 6 5 3 4 6 3 4 1 4 11 16 16 10 9 9 12 15 20 6 14 19 17 14 15
5 6 7 8 10 12 13 13 11 8 7 4 7 4 8 2 5 5 5 4 3 3 1 3 4 2 4 2 2 6 4 10 7 5 3 8 19 19 12 7 14 17 21 22 25
5 6 8 10 11 13 14 11 3 7 9 10 3 4 6 4 1 2 1 5 6 3 4 5 3 2 3 6 7 6 11 13 16 2 4 10 12 17 14 15 26 24 24 23 21
5 5 7 9 12 15 15 1 4 3 3 2 2 3 4 0 3 3 1 7 4 8 5 3 3 6 4 7 11 15 13 10 12 13 10 17 21 20 25 22 26 25 25 18 18
5 5 7 8 11 14 7 2 3 2 1 4 3 5 3 3 1 2 0 4 5 4 8 4 7 12 17 18 19 11 15 19 23 22 17 21 20 20 22 23 25 24 18 14 14
5 4 5 7 10 10 3 4 3 3 9 6 9 8 1 1 2 3 3 6 5 6 7 5 12 19 4 6 11 14 15 21 18 17 5 16 20 25 19 18 19 16 14 12 12
3 2 3 5 8 2 3 2 2 1 5 7 2 3 1 5 5 3 5 4 4 7 12 17 10 4 8 12 14 13 15 17 17 14 14 13 14 6 10 8 8 6 8 4 10
3 3 2 4 1 1 1 3 2 2 6 4 1 1 2 2 3 0 0 0 3 7 5 8 3 6 5 12 12 14 10 16 12 7 11 9 15 9 9 13 4 8 9 12 16
4 5 5 3 2 2 3 5 5 2 8 1 3 2 1 2 3 2 1 2 5 6 5 3 5 5 7 9 8 6 2 2 2 7 10 3 9 3 4 5 3 2 11 16 17
6 4 7 3 1 3 6 6 2 4 9 1 2 2 2 1 1 1 1 2 2 3 3 12 2 4 4 2 4 2 2 1 1 3 11 7 7 6 1 1 2 15 14 14 15
6 2 3 1 1 6 6 2 2 7 1 3 1 1 1 2 2 3 4 5 5 6 10 3 5 2 3 6 3 4 4 8 9 7 15 4 7 11 11 6 7 11 12 13 14
3 4 2 1 4 6 3 2 9 4 7 1 1 1 2 1 3 1 3 9 6 4 10 10 17 8 8 9 10 9 7 6 10 16 19 6 13 11 5 12 12 14 14 12 16
2 2 2 4 6 1 1 7 5 5 4 4 3 8 6 1 2 1 3 7 3 8 8 13 19 2 3 0 3 5 8 4 12 16 12 17 25 18 9 10 10 11 11 14 14
2 2 2 3 8 3 3 10 10 4 2 1 6 5 10 8 5 1 4 2 3 5 1 4 14 2 1 1 6 9 7 9 6 9 22 16 22 15 9 8 7 9 10 10 10
3 3 2 4 3 2 8 9 9 5 6 4 9 12 10 7 6 8 8 10 4 6 1 6 7 20 2 9 17 9 8 8 7 8 11 14 14 11 5 7 7 8 9 10 11
4 3 1 6 5 3 9 5 4 9 4 5 5 11 12 10 10 10 12 11 3 8 12 12 6 10 26 18 4 6 16 18 13 11 11 15 17 6 11 7 4 5 3 5 8
5 2 0 2 7 8 6 8 10 9 8 3 6 4 0 5 7 11 12 4 5 4 5 1 4 7 10 8 3 6 6 15 8 3 12 11 3 6 10 7 4 4 1 2 5
3 4 2 2 0 7 13 13 13 2 5 7 8 6 6 10 8 10 11 2 2 1 3 2 5 13 17 16 7 6 4 6 8 8 10 11 16 15 12 1 0 1 3 0 3
1 3 0 6 8 10 8 3 6 3 2 1 1 3 1 5 5 8 9 5 3 2 1 3 7 13 17 19 20 19 20 23 22 21 15 21 21 24 20 8 2 2 3 2 5
3 3 2 2 5 8 14 12 17 12 6 7 11 8 7 11 12 17 12 9 14 7 8 6 12 16 22 22 18 18 19 21 21 22 24 26 27 11 2 1 2 4 6 4 8
1 1 0 5 5 6 5 6 3 6 2 4 3 1 3 5 2 2 5 6 7 7 9 9 9 12 21 16 18 17 20 21 25 24 24 23 12 5 1 4 6 6 7 7 7
Wind_Direction
42 38 35 31 29 24 21 16 12 5 359 352 345 340 338 341 313 176 241 192 171 153 118 133 135 126 148 112 104 215 234 245 246 214 255 177 245 165 303 273 224 207 248 287 127
37 28 24 19 16 10 9 4 360 356 350 344 339 332 332 337 275 248 246 167 149 157 145 166 167 161 163 140 173 232 236 246 232 227 257 278 253 288 260 263 260 257 251 243 214
21 18 9 4 1 357 352 346 341 338 340 337 333 328 328 315 283 226 159 166 156 166 148 132 141 176 205 191 187 179 245 246 237 243 263 279 274 242 260 272 264 279 292 283 237
350 354 354 351 345 341 339 332 321 317 322 323 324 325 324 266 298 89 142 155 153 150 134 142 160 183 217 219 181 233 244 242 263 222 227 262 290 254 247 263 278 285 290 279 264
328 334 334 333 334 332 330 325 315 308 305 305 312 329 295 193 253 85 123 138 152 164 177 168 179 190 227 227 195 238 254 252 247 248 253 273 264 266 267 267 279 278 275 267 269
316 325 332 331 326 327 322 317 315 310 303 291 279 306 172 246 68 134 128 142 178 181 177 177 218 209 246 231 221 336 278 278 274 255 243 241 270 299 254 273 281 283 277 280 265
298 317 328 327 320 314 311 311 313 308 300 264 212 208 201 252 93 136 137 157 170 180 168 203 156 195 157 258 291 330 299 293 265 256 233 220 264 234 268 283 275 283 287 293 279
300 317 326 326 319 313 313 319 321 333 319 184 164 196 250 61 133 137 147 94 114 73 74 148 167 209 235 68 259 262 253 280 300 153 169 202 277 287 318 311 293 289 290 286 281
309 328 335 330 324 317 325 328 86 49 92 126 168 241 261 137 164 81 219 149 120 96 72 112 168 212 187 238 270 219 272 268 294 231 128 215 282 293 292 290 288 287 284 284 296
302 317 329 326 325 323 335 282 159 133 131 222 122 238 185 246 126 118 62 147 125 132 120 140 159 217 192 213 254 278 271 258 271 290 279 287 273 277 285 282 277 285 285 299 292
277 298 319 330 328 334 340 243 247 185 212 268 251 267 283 79 137 77 137 128 120 172 187 148 204 218 241 230 249 286 280 283 278 286 298 290 295 293 282 281 281 283 296 299 302
265 283 314 323 332 333 323 37 45 2 297 244 253 269 232 344 316 130 171 185 186 197 133 164 229 232 286 264 251 260 270 270 279 282 286 286 298 292 291 268 271 287 299 305 328
257 264 292 315 335 4 27 90 117 190 252 284 234 238 311 189 225 180 197 158 183 181 204 241 264 239 213 254 254 247 256 272 273 316 277 298 279 248 280 274 297 281 281 341 36
143 167 234 296 213 41 83 126 142 353 268 234 200 127 138 182 195 294 190 236 192 264 210 251 321 221 195 250 248 274 268 264 281 302 299 18 304 297 271 278 64 37 74 55 31
134 176 175 247 138 226 122 135 135 222 282 78 153 119 137 239 116 74 26 161 227 184 201 255 177 165 202 228 187 265 34 324 314 287 302 301 267 345 203 240 122 69 54 41 37
71 137 157 115 134 92 129 137 202 234 241 253 154 154 139 90 75 67 69 74 23 207 265 266 354 229 226 157 205 137 285 198 181 286 270 318 222 345 162 183 53 83 58 49 39
45 92 213 149 102 140 142 240 225 233 17 178 186 131 81 149 183 206 165 183 240 282 271 256 214 228 216 229 154 189 273 287 265 244 269 92 240 252 285 41 48 71 77 54 49
17 147 221 306 127 150 192 219 236 212 234 38 59 140 251 158 164 221 265 280 207 234 290 283 282 198 168 232 272 190 207 242 283 277 283 125 259 258 109 88 73 61 54 44 39
139 167 197 185 142 203 174 231 245 193 212 272 240 280 288 351 280 237 240 281 285 198 258 301 273 92 214 136 236 146 220 268 266 267 280 267 264 266 172 85 74 61 50 40 35
146 185 237 147 150 108 218 246 247 213 120 174 244 231 270 264 234 349 283 140 257 196 329 307 291 268 296 284 234 253 318 253 214 256 251 245 260 264 179 126 88 56 44 36 33
141 193 116 168 115 140 212 222 250 238 228 245 247 256 262 272 234 265 244 277 242 282 199 308 245 278 199 229 271 249 239 231 275 253 260 265 258 319 21 83 80 50 31 29 21
149 208 123 172 184 189 225 197 235 294 262 267 269 262 259 269 269 266 252 248 276 301 278 273 277 252 269 294 278 260 259 242 240 239 230 251 250 84 105 104 130 131 77 46 31
164 121 72 257 204 206 212 230 240 235 231 234 256 219 170 267 279 252 253 242 296 281 282 76 228 293 276 247 158 217 288 267 295 297 242 255 259 156 115 128 159 170 160 67 35
136 151 197 225 137 230 226 248 245 170 231 232 249 233 260 260 248 273 283 317 28 351 62 60 252 248 263 280 330 265 238 285 282 275 305 266 274 239 233 36 353 125 146 167 47
311 184 277 184 223 225 223 196 204 218 324 303 218 184 101 271 309 261 280 301 242 339 273 219 263 274 276 278 274 269 270 274 273 274 264 282 281 282 286 304 245 336 345 314 358
169 165 105 168 142 189 210 234 246 246 241 238 253 275 266 253 250 286 289 265 267 274 278 264 270 277 271 274 266 268 263 265 270 271 267 265 266 293 38 67 283 334 302 287 343
160 50 136 149 164 176 206 210 154 153 131 86 110 329 229 256 160 286 243 254 260 271 276 270 272 268 268 277 291 265 248 258 266 264 268 273 300 78 55 289 284 279 284 265 319